MAH753 EKCH-LHBP

Flight info

Callsign MAH753
Flight time 1h 21m
Altitude 35000
Route SIMEG Z493 BILRA DCT DESEN DCT VALPI DCT NIT/N0394F230 M748 ARFOX
Aircraft B738/M-SDFGIRWY/LB1

Departure

Time 2026-05-04 18:23
Airport Copenhagen Kastrup Airport (EKCH)

Arrival

Time 2026-05-04 19:44
Airport Budapest Liszt Ferenc International Airport (LHBP)
Time Latitude Longitude Altitude Speed Heading
2026-05-04 17:34 55.62901 12.63805 23 ft 0 kts 10°
2026-05-04 18:09 55.62870 12.63795 23 ft 2 kts 10°
2026-05-04 18:09 55.62847 12.63788 24 ft 0 kts 10°
2026-05-04 18:12 55.62848 12.63790 24 ft 1 kts 23°
2026-05-04 18:12 55.62849 12.63805 28 ft 0 kts 104°
2026-05-04 18:15 55.62830 12.63906 24 ft 13 kts 120°
2026-05-04 18:15 55.62751 12.63923 23 ft 13 kts 212°
2026-05-04 18:16 55.62673 12.63853 23 ft 13 kts 178°
2026-05-04 18:16 55.62615 12.63959 23 ft 12 kts 123°
2026-05-04 18:16 55.62566 12.64094 24 ft 15 kts 123°
2026-05-04 18:17 55.62425 12.64428 23 ft 16 kts 149°
2026-05-04 18:17 55.62357 12.64431 23 ft 0 kts 192°
2026-05-04 18:18 55.62355 12.64430 23 ft 3 kts 193°
2026-05-04 18:19 55.62092 12.64254 23 ft 24 kts 206°
2026-05-04 18:19 55.61947 12.64132 25 ft 23 kts 206°
2026-05-04 18:19 55.61817 12.63985 24 ft 21 kts 220°
2026-05-04 18:20 55.61699 12.63942 26 ft 10 kts 175°
2026-05-04 18:20 55.61678 12.63946 24 ft 0 kts 174°
2026-05-04 18:21 55.61640 12.63951 26 ft 16 kts 175°
2026-05-04 18:21 55.61537 12.63929 28 ft 14 kts 216°
2026-05-04 18:22 55.61524 12.63912 26 ft 0 kts 220°
2026-05-04 18:22 55.61425 12.63760 24 ft 53 kts 221°
2026-05-04 18:22 55.60967 12.63051 24 ft 122 kts 221°
2026-05-04 18:22 55.60201 12.61822 115 ft 170 kts 220°
2026-05-04 18:23 55.59227 12.60559 919 ft 172 kts 219°
2026-05-04 18:23 55.58383 12.59156 1891 ft 161 kts 229°
2026-05-04 18:23 55.57544 12.57714 2424 ft 181 kts 225°
2026-05-04 18:23 55.56485 12.56193 2684 ft 211 kts 213°
2026-05-04 18:24 55.55039 12.55205 2917 ft 233 kts 201°
2026-05-04 18:24 55.53472 12.54289 3409 ft 240 kts 201°
2026-05-04 18:24 55.51827 12.53300 3761 ft 257 kts 202°
2026-05-04 18:24 55.50105 12.52247 4418 ft 264 kts 202°
2026-05-04 18:25 55.48369 12.51179 5355 ft 262 kts 203°
2026-05-04 18:25 55.46648 12.50118 6241 ft 264 kts 202°
2026-05-04 18:25 55.44816 12.49746 6954 ft 277 kts 175°
2026-05-04 18:25 55.43001 12.51008 7716 ft 289 kts 146°
2026-05-04 18:26 55.41723 12.53768 8458 ft 298 kts 119°
2026-05-04 18:26 55.40501 12.56700 9165 ft 298 kts 146°
2026-05-04 18:26 55.38640 12.58424 9945 ft 294 kts 163°
2026-05-04 18:26 55.36748 12.59672 10400 ft 307 kts 165°
2026-05-04 18:27 55.34648 12.60989 10571 ft 330 kts 165°
2026-05-04 18:27 55.32405 12.62362 10788 ft 350 kts 165°
2026-05-04 18:27 55.30120 12.64003 11285 ft 364 kts 151°
2026-05-04 18:27 55.28292 12.67169 11970 ft 377 kts 124°
2026-05-04 18:28 55.27368 12.71490 12700 ft 385 kts 99°
2026-05-04 18:28 55.27269 12.76203 13412 ft 390 kts 91°
2026-05-04 18:28 55.27205 12.81008 14023 ft 397 kts 92°
2026-05-04 18:28 55.27097 12.85820 14669 ft 401 kts 93°
2026-05-04 18:29 55.26960 12.90783 15380 ft 404 kts 94°
2026-05-04 18:29 55.26812 12.95661 16067 ft 408 kts 94°
2026-05-04 18:29 55.26656 13.00638 16736 ft 411 kts 94°
2026-05-04 18:29 55.26492 13.05683 17405 ft 415 kts 95°
2026-05-04 18:30 55.25002 13.15465 18636 ft 418 kts 119°
2026-05-04 18:30 55.23506 13.19828 19222 ft 418 kts 128°
2026-05-04 18:30 55.21828 13.24017 19797 ft 421 kts 128°
2026-05-04 18:31 55.20127 13.28226 20328 ft 425 kts 128°
2026-05-04 18:31 55.18410 13.32485 20859 ft 430 kts 128°
2026-05-04 18:31 55.16700 13.36747 21387 ft 433 kts 128°
2026-05-04 18:31 55.14955 13.41116 21930 ft 437 kts 128°
2026-05-04 18:32 55.13203 13.45516 22425 ft 441 kts 128°
2026-05-04 18:32 55.11446 13.49931 22919 ft 445 kts 129°
2026-05-04 18:32 55.09688 13.54340 23396 ft 449 kts 129°
2026-05-04 18:32 55.07879 13.58869 23813 ft 453 kts 129°
2026-05-04 18:33 55.06058 13.63421 24197 ft 457 kts 129°
2026-05-04 18:33 55.04246 13.67946 24573 ft 461 kts 129°
2026-05-04 18:33 55.02389 13.72573 24948 ft 464 kts 130°
2026-05-04 18:33 55.00551 13.77147 25313 ft 468 kts 130°
2026-05-04 18:34 54.98663 13.81837 25668 ft 472 kts 130°
2026-05-04 18:34 54.96766 13.86538 26027 ft 475 kts 130°
2026-05-04 18:34 54.94868 13.91236 26371 ft 479 kts 130°
2026-05-04 18:34 54.92936 13.96007 26717 ft 482 kts 131°
2026-05-04 18:35 54.90989 14.00808 27055 ft 485 kts 131°
2026-05-04 18:35 54.89041 14.05599 27386 ft 489 kts 131°
2026-05-04 18:35 54.87095 14.10379 27721 ft 491 kts 131°
2026-05-04 18:35 54.85103 14.15267 28061 ft 494 kts 131°
2026-05-04 18:36 54.83096 14.20181 28383 ft 497 kts 131°
2026-05-04 18:36 54.81106 14.25039 28707 ft 499 kts 131°
2026-05-04 18:36 54.78917 14.29723 28988 ft 494 kts 141°
2026-05-04 18:36 54.76379 14.33677 29300 ft 487 kts 150°
2026-05-04 18:37 54.73629 14.36939 29603 ft 481 kts 158°
2026-05-04 18:37 54.70651 14.39481 29926 ft 474 kts 164°
2026-05-04 18:37 54.67620 14.41804 30326 ft 473 kts 165°
2026-05-04 18:37 54.64645 14.44074 30749 ft 470 kts 164°
2026-05-04 18:38 54.61649 14.46370 31199 ft 467 kts 164°
2026-05-04 18:38 54.58703 14.48642 31618 ft 465 kts 163°
2026-05-04 18:38 54.55735 14.50942 32013 ft 464 kts 163°
2026-05-04 18:38 54.52795 14.53228 32391 ft 462 kts 163°
2026-05-04 18:39 54.49886 14.55492 32773 ft 461 kts 163°
2026-05-04 18:39 54.46964 14.57766 33155 ft 459 kts 163°
2026-05-04 18:39 54.44087 14.60002 33510 ft 458 kts 163°
2026-05-04 18:39 54.41184 14.62254 33865 ft 457 kts 163°
2026-05-04 18:40 54.38283 14.64501 34162 ft 456 kts 163°
2026-05-04 18:40 54.35393 14.66735 34398 ft 456 kts 162°
2026-05-04 18:40 54.33428 14.68251 34552 ft 457 kts 162°
2026-05-04 18:40 54.30564 14.70459 34783 ft 457 kts 162°
2026-05-04 18:41 54.27642 14.72707 34978 ft 458 kts 162°
2026-05-04 18:41 54.21804 14.77189 34964 ft 459 kts 162°
2026-05-04 18:42 54.16024 14.81621 34962 ft 456 kts 162°
2026-05-04 18:42 54.10252 14.86029 34966 ft 455 kts 162°
2026-05-04 18:43 54.04465 14.90433 34970 ft 454 kts 162°
2026-05-04 18:43 53.98710 14.94798 34978 ft 455 kts 162°
2026-05-04 18:44 53.92883 14.99204 34975 ft 457 kts 162°
2026-05-04 18:44 53.87081 15.03578 34976 ft 458 kts 162°
2026-05-04 18:45 53.81241 15.07968 34974 ft 460 kts 162°
2026-05-04 18:45 53.75355 15.12380 34969 ft 462 kts 162°
2026-05-04 18:46 53.69482 15.16769 34968 ft 463 kts 162°
2026-05-04 18:46 53.63587 15.21162 34964 ft 464 kts 162°
2026-05-04 18:47 53.57690 15.25542 34966 ft 464 kts 162°
2026-05-04 18:47 53.51757 15.29935 34964 ft 464 kts 162°
2026-05-04 18:48 53.45861 15.34289 34959 ft 463 kts 162°
2026-05-04 18:48 53.39940 15.38646 34953 ft 462 kts 162°
2026-05-04 18:49 53.34078 15.42947 34959 ft 461 kts 162°
2026-05-04 18:49 53.28203 15.47245 34951 ft 460 kts 162°
2026-05-04 18:50 53.22351 15.51513 34954 ft 459 kts 162°
2026-05-04 18:50 53.16500 15.55767 34951 ft 458 kts 162°
2026-05-04 18:51 53.10679 15.59986 34946 ft 457 kts 162°
2026-05-04 18:51 53.04928 15.64143 34946 ft 456 kts 162°
2026-05-04 18:52 52.99053 15.68376 34951 ft 455 kts 162°
2026-05-04 18:52 52.93253 15.72544 34948 ft 454 kts 162°
2026-05-04 18:53 52.87433 15.76713 34947 ft 453 kts 162°
2026-05-04 18:53 52.81674 15.80826 34943 ft 453 kts 162°
2026-05-04 18:54 52.75897 15.84941 34944 ft 452 kts 162°
2026-05-04 18:54 52.70112 15.89049 34946 ft 452 kts 162°
2026-05-04 18:55 52.64341 15.93136 34948 ft 452 kts 162°
2026-05-04 18:55 52.55685 15.99243 34944 ft 452 kts 162°
2026-05-04 18:56 52.49872 16.03329 34942 ft 453 kts 162°
2026-05-04 18:56 52.44098 16.07377 34941 ft 453 kts 162°
2026-05-04 18:57 52.38279 16.11445 34945 ft 454 kts 162°
2026-05-04 18:57 52.32482 16.15486 34941 ft 454 kts 162°
2026-05-04 18:58 52.26635 16.19550 34941 ft 455 kts 161°
2026-05-04 18:58 52.20811 16.23586 34939 ft 456 kts 161°
2026-05-04 18:59 52.14974 16.27620 34939 ft 457 kts 161°
2026-05-04 18:59 52.09120 16.31654 34941 ft 457 kts 161°
2026-05-04 19:00 52.03258 16.35682 34941 ft 458 kts 161°
2026-05-04 19:00 51.97396 16.39699 34937 ft 458 kts 161°
2026-05-04 19:01 51.95436 16.41038 34937 ft 459 kts 161°
2026-05-04 19:01 51.85970 16.47494 34937 ft 459 kts 161°
2026-05-04 19:02 51.80110 16.51476 34938 ft 459 kts 161°
2026-05-04 19:02 51.74217 16.55469 34941 ft 458 kts 161°
2026-05-04 19:03 51.68351 16.59432 34943 ft 458 kts 161°
2026-05-04 19:03 51.62473 16.63392 34935 ft 458 kts 161°
2026-05-04 19:04 51.56567 16.67360 34925 ft 458 kts 161°
2026-05-04 19:04 51.50687 16.71299 34921 ft 458 kts 161°
2026-05-04 19:05 51.44837 16.75208 34927 ft 457 kts 161°
2026-05-04 19:05 51.38958 16.79124 34930 ft 457 kts 161°
2026-05-04 19:06 51.33081 16.83028 34933 ft 457 kts 161°
2026-05-04 19:06 51.27207 16.86919 34935 ft 457 kts 161°
2026-05-04 19:07 51.21347 16.90791 34939 ft 457 kts 161°
2026-05-04 19:07 51.15478 16.94657 34937 ft 457 kts 161°
2026-05-04 19:08 51.09586 16.98529 34939 ft 456 kts 161°
2026-05-04 19:08 51.03737 17.02360 34939 ft 456 kts 161°
2026-05-04 19:09 50.97867 17.06196 34938 ft 456 kts 161°
2026-05-04 19:09 50.91963 17.10044 34937 ft 456 kts 161°
2026-05-04 19:10 50.86119 17.13841 34936 ft 456 kts 161°
2026-05-04 19:10 50.80211 17.17670 34939 ft 457 kts 161°
2026-05-04 19:11 50.74363 17.21450 34937 ft 457 kts 161°
2026-05-04 19:11 50.68443 17.25265 34940 ft 457 kts 161°
2026-05-04 19:12 50.59644 17.30917 34944 ft 457 kts 161°
2026-05-04 19:13 50.53726 17.34707 34951 ft 457 kts 161°
2026-05-04 19:13 50.47863 17.38450 34947 ft 457 kts 160°
2026-05-04 19:14 50.41967 17.42205 34956 ft 458 kts 160°
2026-05-04 19:14 50.36067 17.45953 34952 ft 458 kts 160°
2026-05-04 19:15 50.30165 17.49693 34959 ft 458 kts 160°
2026-05-04 19:15 50.24165 17.52880 34964 ft 454 kts 169°
2026-05-04 19:16 50.17968 17.55043 34969 ft 454 kts 170°
2026-05-04 19:16 50.11808 17.57137 34966 ft 454 kts 170°
2026-05-04 19:17 50.05642 17.59283 34964 ft 454 kts 169°
2026-05-04 19:17 49.99477 17.61457 34971 ft 455 kts 169°
2026-05-04 19:18 49.93308 17.63635 34969 ft 455 kts 169°
2026-05-04 19:18 49.87149 17.65803 34980 ft 455 kts 169°
2026-05-04 19:19 49.80974 17.67969 34980 ft 455 kts 169°
2026-05-04 19:19 49.74789 17.70132 34985 ft 455 kts 169°
2026-05-04 19:20 49.68614 17.72286 34983 ft 456 kts 169°
2026-05-04 19:20 49.62402 17.74448 34989 ft 456 kts 169°
2026-05-04 19:21 49.56221 17.76593 34991 ft 456 kts 169°
2026-05-04 19:21 49.49997 17.78748 34989 ft 457 kts 169°
2026-05-04 19:22 49.43802 17.80887 34993 ft 457 kts 169°
2026-05-04 19:22 49.37577 17.83031 34990 ft 458 kts 169°
2026-05-04 19:23 49.31362 17.85166 34991 ft 458 kts 169°
2026-05-04 19:23 49.25138 17.87298 34994 ft 459 kts 169°
2026-05-04 19:24 49.18928 17.89420 35000 ft 459 kts 169°
2026-05-04 19:24 49.12685 17.91550 34934 ft 453 kts 169°
2026-05-04 19:24 49.09644 17.92586 34456 ft 449 kts 169°
2026-05-04 19:25 49.06583 17.93625 33682 ft 453 kts 169°
2026-05-04 19:25 49.03510 17.94722 33275 ft 447 kts 165°
2026-05-04 19:25 49.00601 17.96292 33169 ft 451 kts 160°
2026-05-04 19:25 48.97634 17.98094 33060 ft 461 kts 159°
2026-05-04 19:26 48.94636 17.99963 33017 ft 465 kts 159°
2026-05-04 19:26 48.88677 18.03680 32986 ft 460 kts 158°
2026-05-04 19:26 48.85836 18.05652 32978 ft 445 kts 155°
2026-05-04 19:27 48.83097 18.07700 32990 ft 430 kts 154°
2026-05-04 19:27 48.80466 18.09718 32967 ft 416 kts 154°
2026-05-04 19:27 48.77931 18.11663 32871 ft 406 kts 154°
2026-05-04 19:27 48.75371 18.13612 31783 ft 421 kts 154°
2026-05-04 19:28 48.72699 18.15622 30833 ft 432 kts 155°
2026-05-04 19:28 48.69998 18.17638 29854 ft 442 kts 155°
2026-05-04 19:28 48.67203 18.19714 28752 ft 450 kts 155°
2026-05-04 19:28 48.64369 18.21810 27687 ft 456 kts 155°
2026-05-04 19:29 48.61481 18.23943 26654 ft 461 kts 155°
2026-05-04 19:29 48.58623 18.26050 25677 ft 464 kts 155°
2026-05-04 19:29 48.55690 18.28209 24712 ft 467 kts 155°
2026-05-04 19:29 48.52759 18.30364 23781 ft 468 kts 155°
2026-05-04 19:30 48.49861 18.32493 22732 ft 468 kts 155°
2026-05-04 19:30 48.46922 18.34650 21765 ft 466 kts 155°
2026-05-04 19:30 48.44026 18.36773 21225 ft 454 kts 155°
2026-05-04 19:30 48.41238 18.38815 20817 ft 441 kts 155°
2026-05-04 19:31 48.38496 18.40820 20175 ft 434 kts 155°
2026-05-04 19:31 48.35812 18.42780 19488 ft 430 kts 155°
2026-05-04 19:31 48.33122 18.44740 18801 ft 426 kts 155°
2026-05-04 19:31 48.30452 18.46684 18081 ft 422 kts 155°
2026-05-04 19:32 48.27844 18.48580 17318 ft 418 kts 155°
2026-05-04 19:32 48.25238 18.50474 16769 ft 409 kts 155°
2026-05-04 19:32 48.22716 18.52305 16260 ft 401 kts 155°
2026-05-04 19:32 48.20222 18.54113 15751 ft 394 kts 156°
2026-05-04 19:33 48.17763 18.55894 15269 ft 390 kts 156°
2026-05-04 19:33 48.15372 18.57623 15070 ft 381 kts 156°
2026-05-04 19:33 48.12959 18.59366 14775 ft 389 kts 156°
2026-05-04 19:33 48.10521 18.61124 14406 ft 386 kts 156°
2026-05-04 19:34 48.08127 18.62851 14049 ft 377 kts 156°
2026-05-04 19:34 48.05779 18.64544 13674 ft 372 kts 156°
2026-05-04 19:34 48.03426 18.66236 13294 ft 378 kts 156°
2026-05-04 19:34 48.01028 18.67958 12904 ft 382 kts 156°
2026-05-04 19:35 47.98652 18.69664 12521 ft 381 kts 156°
2026-05-04 19:35 47.96259 18.71382 12137 ft 378 kts 156°
2026-05-04 19:35 47.93913 18.73064 11764 ft 375 kts 155°
2026-05-04 19:35 47.91550 18.74756 11245 ft 376 kts 156°
2026-05-04 19:36 47.89200 18.76436 10740 ft 376 kts 156°
2026-05-04 19:36 47.87634 18.77556 10387 ft 375 kts 156°
2026-05-04 19:36 47.85277 18.79239 9819 ft 373 kts 156°
2026-05-04 19:36 47.82967 18.80888 9233 ft 368 kts 156°
2026-05-04 19:37 47.80661 18.82531 8519 ft 366 kts 155°
2026-05-04 19:37 47.78352 18.84175 7769 ft 366 kts 155°
2026-05-04 19:37 47.76051 18.85812 7046 ft 366 kts 156°
2026-05-04 19:37 47.73780 18.87424 6344 ft 366 kts 155°
2026-05-04 19:38 47.71487 18.89053 5686 ft 362 kts 156°
2026-05-04 19:38 47.69221 18.90661 5197 ft 354 kts 156°
2026-05-04 19:38 47.67043 18.92206 4682 ft 344 kts 156°
2026-05-04 19:38 47.64919 18.93711 4197 ft 329 kts 156°
2026-05-04 19:39 47.62990 18.95074 4024 ft 308 kts 156°
2026-05-04 19:39 47.61131 18.96399 3982 ft 284 kts 154°
2026-05-04 19:39 47.59603 18.98117 3984 ft 267 kts 138°
2026-05-04 19:39 47.58391 19.00086 3967 ft 250 kts 134°
2026-05-04 19:40 47.57298 19.01936 3939 ft 234 kts 135°
2026-05-04 19:40 47.56243 19.03666 3706 ft 215 kts 136°
2026-05-04 19:40 47.55277 19.05231 3441 ft 197 kts 136°
2026-05-04 19:40 47.54393 19.06659 3193 ft 181 kts 137°
2026-05-04 19:41 47.53578 19.07978 2949 ft 166 kts 137°
2026-05-04 19:41 47.52822 19.09200 2746 ft 153 kts 137°
2026-05-04 19:41 47.52119 19.10337 2596 ft 146 kts 137°
2026-05-04 19:41 47.51435 19.11440 2382 ft 146 kts 137°
2026-05-04 19:42 47.50733 19.12574 2184 ft 151 kts 137°
2026-05-04 19:42 47.50016 19.13735 1983 ft 154 kts 137°
2026-05-04 19:42 47.49297 19.14900 1770 ft 156 kts 137°
2026-05-04 19:42 47.48562 19.16089 1565 ft 156 kts 136°
2026-05-04 19:43 47.47837 19.17265 1340 ft 156 kts 135°
2026-05-04 19:43 47.47113 19.18440 1139 ft 154 kts 134°
2026-05-04 19:43 47.46388 19.19613 946 ft 154 kts 133°
2026-05-04 19:43 47.45664 19.20791 733 ft 156 kts 132°
2026-05-04 19:44 47.44938 19.21965 523 ft 152 kts 132°
2026-05-04 19:44 47.44281 19.23033 452 ft 125 kts 132°
2026-05-04 19:44 47.43779 19.23853 453 ft 79 kts 129°
2026-05-04 19:44 47.43669 19.24268 455 ft 32 kts 106°
2026-05-04 19:45 47.43585 19.24556 456 ft 29 kts 131°
2026-05-04 19:45 47.43463 19.24753 454 ft 25 kts 131°
2026-05-04 19:45 47.43351 19.24939 456 ft 23 kts 131°
2026-05-04 19:45 47.43278 19.25060 456 ft 15 kts 133°
2026-05-04 19:46 47.43238 19.25195 456 ft 16 kts 85°
2026-05-04 19:46 47.43300 19.25330 456 ft 16 kts 44°
2026-05-04 19:46 47.43381 19.25442 456 ft 16 kts 40°
2026-05-04 19:46 47.43461 19.25543 454 ft 15 kts 40°
2026-05-04 19:47 47.43537 19.25643 455 ft 14 kts 43°
2026-05-04 19:47 47.43607 19.25741 456 ft 14 kts 44°
2026-05-04 19:47 47.43675 19.25834 456 ft 13 kts 42°
2026-05-04 19:47 47.43733 19.25932 456 ft 13 kts 73°
2026-05-04 19:48 47.43692 19.26042 456 ft 12 kts 132°
2026-05-04 19:48 47.43634 19.26135 455 ft 12 kts 133°
2026-05-04 19:48 47.43559 19.26163 456 ft 12 kts 182°
2026-05-04 19:48 47.43486 19.26167 456 ft 8 kts 178°
2026-05-04 19:49 47.43451 19.26169 456 ft 1 kts 178°